[[{"header":{"parameterUnit":"m.s-1","parameterCategory":1,"la1":30.2991,"la2":30.254,"lo1":-89.0895,"lo2":-89.0444,"dy":0.0017,"dx":0.0017,"nx":28,"ny":28,"refTime":"2024-10-06T03:00:00:Z","depth":0,"parameterNumber":2,"parameterNumberName":"U-component_of_WINDS"},"data":[0,0,0,0,0,0,0,0,0,0,0,0,0,0,0,0,0,0,0,0,0,0,0,0,0,0,0,0,0,0,0,0,0,0,0,0,0,0,0,0,0,0,0,0,0,0,0,0,0,0,0,0,0,0,0,0,0,0,-5.0256,-5.0256,0,-5.0299,-5.03,-5.03,-5.0169,-5.0165,-5.0161,-5.0157,-5.0201,-5.0206,-5.021,0,0,0,0,0,0,0,0,0,0,0,0,0,-5.0059,-5.0064,-5.0256,-5.0257,-5.0257,-5.0299,-5.03,-5.03,-5.017,-5.0165,-5.016,-5.0155,-5.0199,-5.0205,-5.0211,0,0,0,0,0,0,0,0,0,0,0,0,0,-5.0128,-5.0065,-5.0256,-5.0197,-5.0192,-5.0299,-5.03,-5.03,-5.0171,-5.0165,-5.0159,-5.0153,-5.0197,-5.0204,-5.0212,-5.0377,0,0,-5.0234,-5.0237,0,0,0,0,0,0,0,0,-5.0124,-5.0135,-5.0205,-5.0201,-5.0196,-5.0223,-5.0246,-5.0326,-5.0172,-5.0179,-5.0157,-5.015,-5.0213,-5.0219,-5.024,-5.0379,-5.0381,-5.0235,-5.0239,-5.0242,-5.0244,0,0,0,0,0,0,0,-5.012,-5.0133,-5.0273,-5.0206,-5.0201,-5.0168,-5.0171,-5.0261,-5.0229,-5.0178,-5.0168,-5.0175,-5.0209,-5.0233,-5.024,-5.0382,-5.0235,-5.0241,-5.0246,-5.0249,-5.0659,-5.0666,0,0,0,0,0,0,-5.0123,-5.013,-5.0272,-5.0274,-5.0145,-5.0176,-5.018,-5.022,-5.0228,-5.0223,-5.018,-5.0169,-5.0224,-5.0231,-5.0241,-5.0436,-5.0242,-5.0249,-5.0253,-5.0653,-5.0661,-5.0668,0,0,0,0,0,0,-5.0119,-5.0137,-5.027,-5.0199,-5.0214,-5.0186,-5.0232,-5.0224,-5.0248,-5.023,-5.0223,-5.0211,-5.0219,-5.0231,-5.0344,-5.0436,-5.0253,-5.0259,-5.0645,-5.0655,-5.0664,-5.0827,0,0,0,0,0,0,-5.0114,-5.0136,-5.0199,-5.0202,-5.0218,-5.0374,-5.0238,-5.0229,-5.0261,-5.0247,-5.0256,-5.0252,-5.0215,-5.0334,-5.0352,-5.0442,-5.0265,-5.0637,-5.065,-5.0661,-5.0814,-5.0841,-5.0865,0,0,0,0,0,-5.0107,-5.0243,-5.0203,-5.0221,-5.0296,-5.0379,-5.0388,-5.0343,-5.0269,-5.0332,-5.032,-5.0252,-5.0422,-5.0347,-5.0366,-5.046,-5.0631,-5.0646,-5.066,-5.0802,-5.0836,-5.0865,0,0,0,0,0,0,-5.0251,-5.0242,-5.0198,-5.0338,-5.0361,-5.0357,-5.0435,-5.038,-5.0424,-5.0409,-5.035,-5.0354,-5.0478,-5.048,-5.0396,-5.062,-5.0514,-5.0533,-5.0615,-5.0647,-5.0673,-5.067,-5.0271,0,0,0,0,0,-5.0299,-5.0368,-5.0356,-5.0481,-5.0494,-5.0463,-5.0497,-5.0461,-5.0481,-5.049,-5.0486,-5.0509,-5.0567,-5.0607,-5.0659,-5.0812,-5.0813,-5.0886,-5.0912,-5.0933,-5.0951,-5.1033,-5.1066,-5.0716,-5.0716,-5.0716,0,0,-5.0399,-5.0403,-5.045,-5.051,-5.0523,-5.0595,-5.0472,-5.0553,-5.0606,-5.0502,-5.061,-5.0608,-5.0629,-5.0764,-5.0822,-5.0769,-5.1048,-5.0952,-5.0969,-5.0975,-5.1051,-5.1084,-5.1114,-5.0726,-5.0724,-5.0723,0,0,-5.0619,-5.0628,-5.0734,-5.075,-5.0771,-5.0749,-5.0774,-5.0779,-5.0774,-5.0881,-5.0805,-5.0866,-5.0968,-5.0987,-5.1009,-5.1236,-5.1175,-5.1254,-5.139,-5.147,-5.1497,-5.1522,-5.1604,-5.1634,-5.1272,-5.1272,-5.1272,0,-5.0741,-5.0847,-5.0795,-5.0882,-5.0911,-5.082,-5.0927,-5.0944,-5.0982,-5.1004,-5.0942,-5.1069,-5.1076,-5.1214,-5.127,-5.1291,-5.1318,-5.1254,-5.1498,-5.1521,-5.1543,-5.1621,-5.1652,-5.1282,-5.1281,-5.128,-5.1279,0,-5.0996,-5.1071,-5.1153,-5.1193,-5.123,-5.1327,-5.129,-5.1334,-5.1294,-5.1279,-5.1389,-5.1395,-5.1447,-5.1477,-5.1438,-5.161,-5.1576,-5.1507,-5.1399,-5.1587,-5.1659,-5.1688,-5.1295,-5.1292,-5.1289,-5.1287,0,0,-5.1309,-5.1318,-5.135,-5.1366,-5.1383,-5.1439,-5.1531,-5.1583,-5.1623,-5.1651,-5.1727,-5.1815,-5.1752,-5.1778,-5.174,-5.1811,-5.1991,-5.1733,-5.1733,-5.1782,-5.2182,-5.2235,-5.227,-5.195,-5.1956,-5.196,-5.218,0,-5.1526,-5.1685,-5.1641,-5.18,-5.1868,-5.1782,-5.1862,-5.1881,-5.1869,-5.1925,-5.1911,-5.1975,-5.1886,-5.1901,-5.1967,-5.1956,-5.2071,-5.1939,-5.2021,-5.2025,-5.2021,-5.2307,-5.2363,-5.2571,-5.2208,-5.2213,-5.2216,0,-5.1801,-5.1842,-5.2007,-5.2013,-5.204,-5.2113,-5.2157,-5.2211,-5.2231,-5.2217,-5.2246,-5.2194,-5.2284,-5.2175,-5.2299,-5.221,-5.2241,-5.224,-5.2247,-5.2254,-5.2133,-5.2324,-5.2636,-5.2668,-5.226,-5.2256,-5.2253,0,-5.2015,-5.211,-5.2221,-5.2238,-5.2247,-5.2301,-5.2307,-5.232,-5.2354,-5.2392,-5.2414,-5.2462,-5.2489,-5.2527,-5.2489,-5.2413,-5.262,-5.2507,-5.2612,-5.2613,-5.266,-5.2658,-5.2984,-5.2678,-5.2678,-5.2677,-5.2676,0,-5.2263,-5.2368,-5.2318,-5.2387,-5.2502,-5.245,-5.2565,-5.2561,-5.2574,-5.264,-5.2568,-5.2632,-5.2577,-5.2636,-5.2607,-5.2715,-5.2727,-5.2719,-5.271,-5.2727,-5.2728,-5.2747,-5.2732,-5.2685,-5.2683,-5.2682,-5.268,0,-5.2522,-5.2492,-5.2608,-5.2607,-5.2609,-5.2695,-5.2693,-5.2757,-5.2739,-5.2824,-5.2841,-5.2813,-5.2879,-5.2845,-5.2912,-5.2893,-5.3033,-5.3004,-5.3027,-5.302,-5.3127,-5.3118,-5.3478,-5.3523,-5.3187,-5.319,-5.3193,0,-5.2683,-5.2762,-5.277,-5.281,-5.2821,-5.2885,-5.292,-5.2871,-5.291,-5.2938,-5.2999,-5.3058,-5.3103,-5.3212,-5.3198,-5.3249,-5.3222,-5.3344,-5.3229,-5.3243,-5.3225,-5.3222,-5.323,-5.3368,-5.3372,-5.3375,-5.3378,0,-5.2973,-5.2955,-5.3007,-5.3056,-5.3099,-5.3135,-5.3164,-5.32,-5.3152,-5.3199,-5.3266,-5.3301,-5.337,-5.3431,-5.3475,-5.348,-5.3423,-5.3414,-5.3441,-5.3459,-5.347,-5.3467,-5.3092,-5.3406,-5.3403,-5.3401,-5.34,-5.3399,-5.3189,-5.3256,-5.3272,-5.3333,-5.335,-5.3379,-5.3439,-5.3429,-5.3484,-5.3537,-5.3504,-5.3583,-5.3599,-5.3653,-5.3667,-5.3727,-5.3678,-5.3717,-5.3727,-5.3738,-5.3754,-5.3459,-5.3735,-5.3734,-5.3733,-5.3732,-5.3732,0,-5.3477,-5.3483,-5.354,-5.3583,-5.3632,-5.3572,-5.3601,-5.3645,-5.3716,-5.3736,-5.3782,-5.3859,-5.3917,-5.3907,-5.396,-5.401,-5.3985,-5.4026,-5.4023,-5.4025,-5.3793,-5.3765,-5.4046,-5.4046,-5.4046,-5.4046,-5.4046,-5.4046,-5.3632,-5.3742,-5.3725,-5.3843,-5.3847,-5.3924,-5.3946,-5.3973,-5.3989,-5.4078,-5.4126,-5.4119,-5.4128,-5.4181,-5.4231,-5.4227,-5.425,-5.4302,-5.4288,-5.4072,-5.4041,-5.4012,-5.3985,-5.4307,-5.4307,-5.4514,-5.4516,-5.4518]},{"header":{"parameterUnit":"m.s-1","parameterCategory":1,"la1":30.2991,"la2":30.254,"lo1":-89.0895,"lo2":-89.0444,"dy":0.0017,"dx":0.0017,"nx":28,"ny":28,"refTime":"2024-10-06T03:00:00:Z","depth":0,"parameterNumber":3,"parameterNumberName":"V-component_of_WINDS"},"data":[0,0,0,0,0,0,0,0,0,0,0,0,0,0,0,0,0,0,0,0,0,0,0,0,0,0,0,0,0,0,0,0,0,0,0,0,0,0,0,0,0,0,0,0,0,0,0,0,0,0,0,0,0,0,0,0,0,0,-4.9117,-4.9118,0,-4.9155,-4.9155,-4.9155,-4.9079,-4.9077,-4.9074,-4.9072,-4.9108,-4.9111,-4.9115,0,0,0,0,0,0,0,0,0,0,0,0,0,-4.8977,-4.898,-4.9117,-4.9118,-4.9118,-4.9155,-4.9155,-4.9155,-4.9079,-4.9076,-4.9073,-4.9071,-4.9107,-4.9111,-4.9115,0,0,0,0,0,0,0,0,0,0,0,0,0,-4.9029,-4.8981,-4.9117,-4.9085,-4.9082,-4.9154,-4.9155,-4.9156,-4.908,-4.9076,-4.9073,-4.9069,-4.9106,-4.9111,-4.9115,-4.922,0,0,-4.913,-4.9133,0,0,0,0,0,0,0,0,-4.9026,-4.9034,-4.9089,-4.9087,-4.9084,-4.9108,-4.9119,-4.9177,-4.9081,-4.9081,-4.9072,-4.9067,-4.9111,-4.9115,-4.913,-4.9222,-4.9224,-4.9131,-4.9134,-4.9136,-4.9137,0,0,0,0,0,0,0,-4.9023,-4.9032,-4.9132,-4.909,-4.9087,-4.9067,-4.9071,-4.913,-4.9116,-4.9081,-4.9075,-4.9081,-4.9109,-4.9126,-4.9131,-4.9224,-4.9131,-4.9135,-4.9138,-4.914,-4.9402,-4.9406,0,0,0,0,0,0,-4.9023,-4.903,-4.9131,-4.9133,-4.9046,-4.9073,-4.9076,-4.9104,-4.9116,-4.9114,-4.9084,-4.9077,-4.9119,-4.9125,-4.9132,-4.9254,-4.9136,-4.9141,-4.9143,-4.9398,-4.9403,-4.9407,0,0,0,0,0,0,-4.9021,-4.9033,-4.9129,-4.908,-4.9091,-4.9079,-4.9111,-4.9107,-4.9124,-4.9118,-4.9115,-4.9104,-4.9117,-4.9125,-4.9199,-4.9255,-4.9143,-4.9147,-4.9393,-4.9399,-4.9405,-4.9501,0,0,0,0,0,0,-4.9017,-4.9033,-4.9073,-4.9081,-4.9094,-4.9197,-4.9115,-4.9111,-4.9133,-4.9124,-4.9136,-4.9134,-4.9114,-4.9192,-4.9204,-4.9259,-4.9151,-4.9388,-4.9396,-4.9403,-4.9493,-4.951,-4.9524,0,0,0,0,0,-4.9012,-4.9099,-4.9076,-4.9088,-4.9144,-4.92,-4.9207,-4.9183,-4.9138,-4.9178,-4.9174,-4.9134,-4.9247,-4.92,-4.9213,-4.9271,-4.9385,-4.9394,-4.9403,-4.9486,-4.9507,-4.9524,0,0,0,0,0,0,-4.9097,-4.9099,-4.9074,-4.9166,-4.9184,-4.9187,-4.9237,-4.9206,-4.9236,-4.9227,-4.9195,-4.9198,-4.9278,-4.9281,-4.923,-4.9372,-4.9308,-4.932,-4.9367,-4.9386,-4.9402,-4.9399,-4.9155,0,0,0,0,0,-4.9127,-4.9173,-4.9172,-4.9253,-4.9263,-4.9249,-4.9272,-4.9252,-4.9269,-4.9276,-4.9277,-4.9295,-4.9333,-4.936,-4.9396,-4.9493,-4.9494,-4.9539,-4.9555,-4.9567,-4.9578,-4.9628,-4.9648,-4.9437,-4.9437,-4.9436,0,0,-4.9188,-4.9195,-4.9226,-4.927,-4.9282,-4.9329,-4.9256,-4.9309,-4.9344,-4.9284,-4.9354,-4.9355,-4.9372,-4.9458,-4.9496,-4.9463,-4.9637,-4.9579,-4.9589,-4.9593,-4.964,-4.966,-4.9678,-4.9443,-4.9442,-4.9441,0,0,-4.9324,-4.9335,-4.9403,-4.9416,-4.9434,-4.9423,-4.944,-4.9448,-4.9447,-4.9516,-4.9472,-4.9512,-4.9581,-4.9594,-4.961,-4.975,-4.9714,-4.9762,-4.9843,-4.9893,-4.991,-4.9924,-4.9973,-4.9991,-4.9773,-4.9773,-4.9773,0,-4.9398,-4.9469,-4.9442,-4.9498,-4.9518,-4.9466,-4.9534,-4.9548,-4.9577,-4.9591,-4.9555,-4.9638,-4.9646,-4.9734,-4.9768,-4.9783,-4.9799,-4.9761,-4.991,-4.9924,-4.9937,-4.9983,-5.0002,-4.9779,-4.9778,-4.9777,-4.9777,0,-4.9558,-4.9608,-4.966,-4.969,-4.9716,-4.9778,-4.9759,-4.9788,-4.9766,-4.9759,-4.9829,-4.9837,-4.9873,-4.9892,-4.987,-4.9976,-4.9955,-4.9915,-4.9849,-4.9963,-5.0006,-5.0024,-4.9787,-4.9785,-4.9783,-4.9782,0,0,-4.975,-4.9762,-4.9782,-4.9794,-4.981,-4.9847,-4.9906,-4.9941,-4.9966,-4.9988,-5.0036,-5.0094,-5.0056,-5.0074,-5.0053,-5.0097,-5.0206,-5.0051,-5.0051,-5.0079,-5.0322,-5.0352,-5.0373,-5.0182,-5.0185,-5.0188,-5.032,0,-4.9884,-4.9986,-4.9963,-5.0063,-5.0108,-5.0058,-5.0109,-5.0124,-5.0119,-5.0155,-5.0149,-5.0191,-5.0138,-5.0148,-5.0189,-5.0184,-5.0254,-5.0174,-5.0226,-5.0228,-5.0223,-5.0396,-5.0428,-5.0553,-5.0337,-5.034,-5.0342,0,-5.0055,-5.0082,-5.0188,-5.0194,-5.0212,-5.0259,-5.0288,-5.0324,-5.0339,-5.0332,-5.0352,-5.0322,-5.0379,-5.0313,-5.0391,-5.0337,-5.0356,-5.0357,-5.0361,-5.0365,-5.0292,-5.0404,-5.0592,-5.0611,-5.0368,-5.0366,-5.0364,0,-5.0183,-5.0246,-5.0317,-5.0329,-5.0339,-5.0373,-5.0378,-5.039,-5.0412,-5.0437,-5.0451,-5.0483,-5.0501,-5.0526,-5.0505,-5.0459,-5.0586,-5.0518,-5.0581,-5.0581,-5.0609,-5.0608,-5.0803,-5.0623,-5.0623,-5.0622,-5.0622,0,-5.0335,-5.0401,-5.0375,-5.0418,-5.049,-5.0462,-5.0534,-5.0533,-5.0543,-5.0585,-5.0544,-5.0584,-5.0554,-5.0591,-5.0575,-5.0641,-5.065,-5.0645,-5.064,-5.0649,-5.0649,-5.0661,-5.0651,-5.0627,-5.0626,-5.0625,-5.0624,0,-5.0491,-5.0476,-5.055,-5.0553,-5.0555,-5.0608,-5.061,-5.065,-5.0641,-5.0695,-5.0705,-5.0692,-5.0733,-5.0715,-5.0758,-5.0747,-5.0832,-5.0816,-5.0828,-5.0823,-5.0886,-5.088,-5.1095,-5.1122,-5.0925,-5.0927,-5.0929,0,-5.0589,-5.0639,-5.0647,-5.0672,-5.0681,-5.0722,-5.0744,-5.0718,-5.0743,-5.0762,-5.08,-5.0837,-5.0866,-5.0934,-5.0928,-5.096,-5.0944,-5.1017,-5.0949,-5.0956,-5.0944,-5.0942,-5.0946,-5.1031,-5.1033,-5.1035,-5.1037,0,-5.0765,-5.0754,-5.0789,-5.082,-5.0848,-5.0871,-5.0891,-5.0914,-5.0888,-5.0918,-5.0959,-5.0982,-5.1026,-5.1063,-5.1092,-5.1096,-5.1062,-5.1058,-5.1074,-5.1083,-5.1088,-5.1086,-5.0864,-5.1053,-5.1052,-5.105,-5.105,-5.1049,-5.0894,-5.0935,-5.0947,-5.0986,-5.0998,-5.1017,-5.1055,-5.105,-5.1085,-5.1119,-5.1101,-5.1149,-5.1161,-5.1196,-5.1205,-5.1242,-5.1213,-5.1236,-5.1242,-5.1248,-5.1257,-5.1082,-5.1247,-5.1246,-5.1246,-5.1246,-5.1245,0,-5.1067,-5.1072,-5.1108,-5.1137,-5.1167,-5.1132,-5.1152,-5.1179,-5.1223,-5.1237,-5.1266,-5.1313,-5.1349,-5.1345,-5.1378,-5.1408,-5.1393,-5.1418,-5.1415,-5.1416,-5.1281,-5.1263,-5.1429,-5.1429,-5.1429,-5.1429,-5.1429,-5.1429,-5.116,-5.1228,-5.1219,-5.1292,-5.1296,-5.1343,-5.1357,-5.1374,-5.1385,-5.144,-5.147,-5.1467,-5.1473,-5.1506,-5.1537,-5.1535,-5.1549,-5.1579,-5.1571,-5.1444,-5.1426,-5.1409,-5.1392,-5.1582,-5.1582,-5.1703,-5.1704,-5.1705]}]]